Weather in Nur-Tukhum

Russia / Republic of Buryatia     50°48′27″N   106°26′29″E
temp.,
°C
wind,
m/s
gust,
m/s
humid.,
%
clouds,
%
prec.,
mm/h
press.,
hPa
HPBL,
m
19 may, wed
wed1923:00+9sw1180100 0.3 100210
02:00+10wsw1178100 0.8 100013
05:00+9n1182100 0.3 99913
08:00+11nne5763100 0.3 1001766
11:00+13n6652100 0.0 10031237
14:00+14n544782 0.0 10021363
17:00+14n3246100 0.0 10011242
20:00+13n235292 0.0 1000129
20 may, thu
thu2023:00+11nnw2259100 0.0 100067
02:00+11ene126085 0.0 99850
05:00+9ne0166100 0.0 99710
08:00+12s2256100 0.0 996299
11:00+17n114697 0.0 995930
14:00+20n433897 0.0 9931363
17:00+22nne643363 0.0 9901753
20:00+9nnw51270100 0.4 995468
21 may, fri
fri2123:00+7nnw5882100 2.2 996389
02:00+6n61279100 2.2 996502
05:00+4nnw6968100 0.0 999517
08:00+4nnw6968100 0.2 1002598
11:00+8n4555100 0.0 1002971
14:00+7nnw9963100 0.1 10051003
17:00+8n10105296 0.3 10061325
20:00+6n81356100 0.3 10101095
22 may, sat
sat2223:00+3n51163100 0.0 1012944
02:00+3nnw41061100 0.0 1013878
05:00+2w2366100 0.0 101354
08:00+5nnw51057100 0.0 10141093
11:00+10n10133141 0.0 10132289
14:00+11n111332100 0.0 10142677
17:00+11n101229100 0.0 10152782
20:00+9nnw6113984 0.0 10171220
23 may, sun
sun2323:00+6wnw51153100 0.0 1019373
02:00+5wnw4116272 0.0 1020337
05:00+2w33755 0.0 102132
08:00+7nw585589 0.0 10221040
11:00+11nnw893897 0.5 10202380
14:00+12n6733100 0.7 10192408
17:00+12n773155 0.0 10182287
20:00+9n584610 0.0 1019589